• In Hungary
  • List of Countries
  • For 7 days
  • Water Temperature
  • Satellite Maps
  • Weather Map
  • News
  • Weather Widgets
  • user-avatar
    Login

    Hourly Weather Ondjiwa

    Today, 16 January, Tuesday

    Time Temperature Precipitation Wind Pressure Humidity
    00:00 +28°C° 0.1 mm 3 mps 667 mmHg 46%
    01:00 +27°C° 0 mm 3 mps 667 mmHg 53%
    02:00 +27°C° 0.1 mm 3 mps 667 mmHg 56%
    03:00 +26°C° 0.1 mm 3 mps 666 mmHg 59%
    04:00 +25°C° 0.1 mm 3 mps 666 mmHg 62%
    05:00 +25°C° 0.3 mm 3 mps 667 mmHg 63%
    06:00 +25°C° 0.3 mm 2 mps 667 mmHg 63%
    07:00 +26°C° 0 mm 2 mps 667 mmHg 63%
    08:00 +28°C° 0 mm 2 mps 668 mmHg 55%
    09:00 +30°C° 0 mm 2 mps 668 mmHg 48%
    10:00 +31°C° 0 mm 2 mps 668 mmHg 41%
    11:00 +33°C° 0 mm 1 mps 668 mmHg 36%
    12:00 +35°C° 0 mm 1 mps 668 mmHg 31%
    13:00 +37°C° 0 mm 1 mps 668 mmHg 26%
    14:00 +36°C° 0 mm 1 mps 667 mmHg 27%
    15:00 +35°C° 0 mm 1 mps 666 mmHg 28%
    16:00 +34°C° 0 mm 1 mps 666 mmHg 29%
    17:00 +32°C° 1.1 mm 2 mps 665 mmHg 36%
    18:00 +31°C° 1.1 mm 3 mps 665 mmHg 43%
    19:00 +29°C° 1.1 mm 4 mps 664 mmHg 50%
    20:00 +28°C° 2.5 mm 4 mps 665 mmHg 55%
    21:00 +27°C° 2.5 mm 3 mps 666 mmHg 60%
    22:00 +26°C° 2.5 mm 3 mps 667 mmHg 65%
    23:00 +25°C° 1.8 mm 3 mps 666 mmHg 69%

    Tomorrow, 17 January, Wednesday

    Time Temperature Precipitation Wind Pressure Humidity
    00:00 +24°C° 1.8 mm 3 mps 666 mmHg 72%
    01:00 +23°C° 1.8 mm 4 mps 666 mmHg 76%
    02:00 +22°C° 0.1 mm 3 mps 666 mmHg 78%
    03:00 +22°C° 0.1 mm 3 mps 666 mmHg 79%
    04:00 +23°C° 0.1 mm 2 mps 665 mmHg 80%
    05:00 +24°C° 0 mm 3 mps 665 mmHg 78%
    06:00 +24°C° 0 mm 3 mps 666 mmHg 76%
    07:00 +25°C° 0 mm 3 mps 666 mmHg 74%
    08:00 +27°C° 0 mm 3 mps 666 mmHg 64%
    09:00 +29°C° 0 mm 3 mps 667 mmHg 54%
    10:00 +31°C° 0 mm 3 mps 667 mmHg 43%
    11:00 +34°C° 0 mm 3 mps 667 mmHg 38%
    12:00 +35°C° 0 mm 3 mps 666 mmHg 33%
    13:00 +37°C° 0 mm 2 mps 666 mmHg 27%
    14:00 +37°C° 0 mm 2 mps 665 mmHg 26%
    15:00 +37°C° 0 mm 2 mps 665 mmHg 25%
    16:00 +36°C° 0 mm 1 mps 664 mmHg 23%
    17:00 +35°C° 0 mm 1 mps 664 mmHg 26%
    18:00 +33°C° 0 mm 1 mps 664 mmHg 29%
    19:00 +32°C° 0 mm 1 mps 664 mmHg 31%
    20:00 +31°C° 0 mm 2 mps 665 mmHg 37%
    21:00 +30°C° 0 mm 3 mps 665 mmHg 42%
    22:00 +29°C° 0 mm 4 mps 666 mmHg 48%
    23:00 +28°C° 0.1 mm 4 mps 666 mmHg 51%

    Day after tomorrow, 18 January, Thursday

    Time Temperature Precipitation Wind Pressure Humidity
    00:00 +27°C° 0.1 mm 4 mps 666 mmHg 55%
    01:00 +26°C° 0.1 mm 5 mps 666 mmHg 58%
    02:00 +25°C° 0.3 mm 4 mps 665 mmHg 61%
    03:00 +25°C° 0.3 mm 4 mps 665 mmHg 65%
    04:00 +23°C° 0.3 mm 4 mps 665 mmHg 68%
    05:00 +23°C° 0 mm 4 mps 665 mmHg 68%
    06:00 +23°C° 0 mm 4 mps 666 mmHg 68%
    07:00 +24°C° 0 mm 3 mps 666 mmHg 69%
    08:00 +25°C° 0 mm 3 mps 666 mmHg 62%
    09:00 +27°C° 0 mm 2 mps 667 mmHg 55%
    10:00 +28°C° 0 mm 2 mps 667 mmHg 48%
    11:00 +30°C° 0 mm 1 mps 667 mmHg 44%
    12:00 +32°C° 0 mm 1 mps 667 mmHg 39%
    13:00 +31°C° 0 mm 0 mps 667 mmHg 35%
    14:00 +33°C° 0 mm 1 mps 666 mmHg 34%
    15:00 +33°C° 0 mm 1 mps 665 mmHg 33%
    16:00 +34°C° 0 mm 2 mps 664 mmHg 33%
    17:00 +32°C° 0 mm 2 mps 664 mmHg 36%
    18:00 +30°C° 0 mm 1 mps 665 mmHg 39%
    19:00 +29°C° 0 mm 1 mps 665 mmHg 42%
    20:00 +29°C° 0 mm 1 mps 665 mmHg 44%
    21:00 +28°C° 0 mm 1 mps 666 mmHg 46%
    22:00 +28°C° 0 mm 2 mps 666 mmHg 48%
    23:00 +27°C° 0 mm 2 mps 666 mmHg 51%

    19 January, Friday

    Time Temperature Precipitation Wind Pressure Humidity
    00:00 +26°C° 0 mm 2 mps 665 mmHg 54%
    01:00 +25°C° 0 mm 2 mps 665 mmHg 57%
    02:00 +25°C° 0.1 mm 2 mps 665 mmHg 59%
    03:00 +24°C° 0.1 mm 2 mps 664 mmHg 62%
    04:00 +24°C° 0.1 mm 2 mps 664 mmHg 64%
    05:00 +24°C° 0 mm 2 mps 665 mmHg 63%
    06:00 +25°C° 0 mm 2 mps 665 mmHg 61%
    07:00 +25°C° 0 mm 1 mps 666 mmHg 60%
    08:00 +28°C° 0 mm 1 mps 666 mmHg 52%
    09:00 +30°C° 0 mm 1 mps 667 mmHg 44%
    10:00 +33°C° 0 mm 1 mps 667 mmHg 37%
    11:00 +33°C° 0 mm 1 mps 667 mmHg 35%
    12:00 +35°C° 0 mm 2 mps 666 mmHg 32%
    13:00 +35°C° 0 mm 2 mps 665 mmHg 30%
    14:00 +35°C° 0 mm 2 mps 665 mmHg 31%
    15:00 +34°C° 0 mm 1 mps 664 mmHg 31%
    16:00 +34°C° 0 mm 1 mps 664 mmHg 31%
    17:00 +33°C° 0 mm 1 mps 664 mmHg 34%
    18:00 +32°C° 0 mm 1 mps 664 mmHg 36%
    19:00 +31°C° 0 mm 1 mps 664 mmHg 38%
    20:00 +30°C° 0 mm 1 mps 665 mmHg 41%
    21:00 +29°C° 0 mm 2 mps 665 mmHg 43%
    22:00 +29°C° 0 mm 2 mps 665 mmHg 45%
    23:00 +27°C° 0.2 mm 2 mps 665 mmHg 51%

    20 January, Saturday

    Time Temperature Precipitation Wind Pressure Humidity
    00:00 +26°C° 0.2 mm 3 mps 664 mmHg 56%
    01:00 +25°C° 0.2 mm 3 mps 664 mmHg 61%
    02:00 +24°C° 0 mm 3 mps 664 mmHg 63%
    03:00 +24°C° 0 mm 2 mps 664 mmHg 66%
    04:00 +23°C° 0 mm 2 mps 664 mmHg 68%
    05:00 +24°C° 0 mm 2 mps 665 mmHg 67%
    06:00 +24°C° 0 mm 2 mps 665 mmHg 66%
    07:00 +24°C° 0 mm 2 mps 666 mmHg 65%
    08:00 +27°C° 0 mm 2 mps 666 mmHg 56%
    09:00 +30°C° 0 mm 1 mps 667 mmHg 47%
    10:00 +32°C° 0 mm 1 mps 667 mmHg 38%
    11:00 +34°C° 0 mm 1 mps 667 mmHg 34%
    12:00 +35°C° 0 mm 1 mps 666 mmHg 30%
    13:00 +36°C° 0 mm 1 mps 666 mmHg 26%
    14:00 +36°C° 0 mm 1 mps 665 mmHg 27%
    15:00 +36°C° 0 mm 2 mps 665 mmHg 28%
    16:00 +35°C° 0 mm 2 mps 664 mmHg 29%
    17:00 +34°C° 0 mm 2 mps 664 mmHg 32%
    18:00 +32°C° 0 mm 2 mps 664 mmHg 34%
    19:00 +31°C° 0 mm 2 mps 664 mmHg 37%
    20:00 +30°C° 0 mm 2 mps 665 mmHg 39%
    21:00 +30°C° 0 mm 2 mps 665 mmHg 41%
    22:00 +29°C° 0 mm 2 mps 666 mmHg 43%
    23:00 +28°C° 0.1 mm 2 mps 665 mmHg 47%

    21 January, Sunday

    Time Temperature Precipitation Wind Pressure Humidity
    00:00 +27°C° 0.1 mm 3 mps 665 mmHg 50%
    01:00 +26°C° 0.1 mm 3 mps 665 mmHg 54%
    02:00 +25°C° 0 mm 3 mps 665 mmHg 57%
    03:00 +25°C° 0 mm 3 mps 665 mmHg 60%
    04:00 +24°C° 0 mm 3 mps 665 mmHg 64%
    05:00 +24°C° 0 mm 3 mps 666 mmHg 63%
    06:00 +25°C° 0 mm 2 mps 666 mmHg 63%
    07:00 +25°C° 0 mm 2 mps 666 mmHg 62%
    08:00 +27°C° 0 mm 1 mps 667 mmHg 55%
    09:00 +30°C° 0 mm 1 mps 667 mmHg 48%
    10:00 +32°C° 0 mm 1 mps 667 mmHg 41%
    11:00 +34°C° 0 mm 1 mps 667 mmHg 37%
    12:00 +33°C° 0 mm 0 mps 666 mmHg 32%
    13:00 +35°C° 0 mm 0 mps 666 mmHg 28%
    14:00 +34°C° 0 mm 0 mps 665 mmHg 29%
    15:00 +35°C° 0 mm 1 mps 665 mmHg 30%
    16:00 +34°C° 0 mm 1 mps 664 mmHg 31%
    17:00 +33°C° 0 mm 1 mps 664 mmHg 33%
    18:00 +32°C° 0 mm 1 mps 664 mmHg 35%
    19:00 +31°C° 0 mm 1 mps 665 mmHg 37%
    20:00 +30°C° 0.5 mm 2 mps 665 mmHg 41%
    21:00 +29°C° 0.5 mm 3 mps 665 mmHg 46%
    22:00 +28°C° 0.5 mm 3 mps 666 mmHg 50%
    23:00 +27°C° 0.7 mm 3 mps 666 mmHg 55%
    Show more